Dewpoint
61 61 61 61 61 61 61 61 61 62 62 62 63 63 63 62 59 29 19 37 45 66 63 45 43 39 39 41 44 47 36 31 33 33 31 21 22 14 14 14 12 12 13 15 20
61 61 61 60 61 62 61 61 61 61 62 62 62 62 62 61 27 21 50 66 68 67 41 45 42 39 36 35 37 41 36 36 33 30 28 22 22 16 15 14 12 11 13 17 20
60 60 60 60 61 61 61 61 61 61 62 62 62 61 61 55 26 19 62 66 67 62 42 40 38 36 36 35 31 32 33 30 26 25 23 20 17 15 18 19 14 12 13 17 18
60 60 60 60 60 61 61 60 61 61 62 61 61 61 60 32 24 20 60 67 61 44 40 36 37 37 34 31 28 28 25 26 23 19 19 20 17 16 17 19 14 14 12 15 15
60 60 60 60 59 59 60 60 60 61 61 61 61 61 38 21 19 23 56 55 35 36 38 37 35 35 32 28 26 26 22 19 19 18 18 17 17 16 14 13 12 10 11 14 15
60 60 59 59 59 59 59 60 60 61 61 61 61 58 25 19 21 27 29 30 32 33 34 36 34 32 28 24 25 23 21 18 17 17 16 17 14 15 13 11 9 9 12 14 17
60 59 59 60 59 59 60 60 60 60 60 61 60 37 21 20 22 24 28 30 32 33 33 32 30 28 26 23 21 20 20 19 18 17 16 16 15 16 12 10 8 8 11 17 19
61 60 60 60 59 59 59 60 60 60 60 60 56 21 20 21 22 22 25 27 28 28 30 29 28 27 24 23 20 20 22 20 18 17 14 17 19 16 11 8 9 7 10 17 19
61 60 60 59 59 59 59 59 59 58 60 56 25 19 17 35 20 21 23 25 28 29 28 25 28 26 25 23 20 22 13 16 20 17 16 17 19 15 10 9 10 6 8 13 17
61 60 60 59 59 58 58 58 58 53 44 26 18 19 19 18 20 20 22 25 25 25 25 24 24 24 24 18 9 8 9 13 14 18 16 17 18 17 10 9 11 7 4 10 13
61 60 60 59 59 58 50 34 30 28 28 21 20 17 18 19 20 19 21 22 23 23 21 24 21 19 16 14 11 11 10 10 15 20 17 18 17 18 16 11 12 8 4 5 10
60 60 59 59 57 56 45 33 35 35 28 25 21 19 19 19 18 18 21 19 21 19 22 21 20 15 12 12 11 12 10 10 14 18 16 15 16 17 19 16 14 11 6 5 8
60 60 59 58 57 45 40 41 43 37 25 22 21 19 19 19 18 17 20 20 20 20 20 19 18 13 13 11 10 11 9 8 5 12 15 15 16 16 16 18 14 12 10 7 8
59 59 59 57 46 40 40 41 43 35 18 18 20 21 21 21 20 20 21 21 17 17 18 17 13 13 14 11 10 11 9 9 12 13 10 14 7 15 13 13 13 14 10 8 8
59 58 58 53 41 39 40 40 43 30 12 19 20 23 22 19 20 20 22 22 19 15 19 16 13 13 13 12 8 10 13 15 17 15 15 15 11 11 13 12 13 12 12 11 10
58 58 57 49 43 38 39 41 34 19 13 20 20 19 19 21 20 20 20 21 21 18 17 15 12 10 10 9 8 18 16 19 20 18 12 14 11 8 10 9 11 12 12 12 9
57 57 56 48 37 41 40 35 19 15 19 18 19 19 18 18 18 17 18 18 16 16 15 15 14 11 8 10 13 13 13 15 12 14 8 14 11 9 12 13 11 12 12 11 10
56 55 51 45 44 44 36 24 19 17 15 22 21 19 17 19 18 18 18 15 19 15 16 12 10 14 6 7 8 10 13 12 8 6 8 11 11 14 13 11 14 11 13 14 12
54 50 43 39 42 41 32 22 19 20 21 22 20 18 18 20 18 18 17 17 17 19 15 12 15 9 6 4 9 12 13 13 10 12 9 11 9 13 12 8 9 10 13 15 13
51 45 42 40 41 36 30 28 23 23 24 22 20 20 18 19 19 18 18 18 19 19 19 15 11 12 10 9 10 11 11 12 14 24 9 3 7 7 13 13 11 9 12 15 15
45 43 39 40 39 33 27 27 27 26 26 22 21 21 20 20 20 18 17 19 19 18 18 18 14 13 14 13 12 9 8 10 14 13 13 6 6 9 13 15 13 10 11 14 14
43 42 40 39 31 32 29 30 34 28 29 26 24 23 22 22 21 21 19 19 21 19 17 16 15 10 11 12 11 9 8 10 21 18 14 22 17 10 9 12 14 13 10 11 12
43 40 41 38 32 30 32 31 31 29 27 26 26 26 24 24 23 23 22 26 24 20 17 19 16 10 10 14 14 13 12 11 17 20 21 26 15 10 10 9 11 13 12 10 11
40 40 37 36 35 31 29 28 28 32 29 27 25 25 24 23 24 23 23 25 24 21 29 28 18 14 14 12 19 16 15 13 12 22 23 14 10 13 16 14 11 13 15 11 11
40 40 38 37 34 32 30 30 28 27 29 28 26 26 25 26 24 23 24 23 21 32 23 21 17 14 14 13 15 14 14 15 20 13 18 13 15 15 15 17 15 13 14 12 10
43 40 39 39 34 33 35 31 29 28 28 27 27 27 26 24 23 22 25 23 23 26 22 22 20 16 15 15 16 16 18 16 15 15 13 13 14 15 16 14 14 12 12 12 11
46 42 39 39 34 33 34 33 31 30 30 28 27 28 26 27 26 25 25 24 24 24 22 22 22 18 17 14 16 16 17 18 17 16 14 15 17 17 16 17 16 16 13 13 12
Lifted_Index
7 7 7 8 8 8 8 8 8 8 7 7 6 7 7 8 9 9 9 8 6 4 4 5 5 6 7 7 7 5 5 5 5 6 5 5 5 6 6 7 8 9 11 14 16
7 7 8 8 8 8 9 9 8 8 7 7 7 7 7 8 9 9 9 7 4 4 5 5 5 6 7 8 7 6 5 6 6 6 6 6 6 6 7 7 8 10 12 15 16
8 8 8 8 9 9 9 9 9 8 8 8 7 8 8 8 9 9 8 5 3 4 6 6 6 6 7 8 8 7 7 7 7 7 7 7 7 7 8 9 10 11 13 15 16
8 8 8 9 9 9 9 10 9 9 8 8 8 8 9 9 9 9 8 6 6 7 7 6 6 7 7 8 8 8 8 8 8 8 8 8 8 8 9 10 11 12 14 15 16
9 9 9 9 9 9 10 10 9 9 9 9 9 9 9 9 10 10 10 9 9 9 8 7 7 7 8 8 8 8 8 9 9 9 8 9 9 9 10 11 12 13 14 15 15
9 9 9 10 10 10 10 10 10 9 9 9 9 10 10 10 11 11 11 11 10 10 9 8 8 8 8 9 9 9 8 8 9 9 9 9 9 9 11 12 13 13 14 14 15
10 10 10 10 10 10 10 10 10 10 10 9 10 10 10 10 11 12 11 11 11 10 9 9 8 9 9 9 9 9 7 7 7 8 9 8 8 9 11 12 12 13 13 14 14
10 10 10 10 10 10 10 10 10 10 10 10 11 11 11 11 12 12 12 11 11 10 10 10 9 10 10 9 8 7 6 5 6 7 8 7 7 8 11 11 12 12 12 13 13
10 11 11 11 11 11 10 10 10 10 10 11 11 11 11 11 11 12 12 12 11 11 11 10 10 10 9 7 6 5 4 4 5 6 7 6 6 8 10 11 11 12 12 12 12
11 11 11 11 11 11 10 10 10 10 10 10 10 10 10 11 11 11 12 12 11 11 10 10 9 8 7 6 5 4 4 3 4 6 6 5 6 7 10 10 11 11 11 11 11
10 11 11 11 12 11 11 10 10 10 10 10 10 10 10 10 11 11 11 11 10 10 9 8 7 6 7 7 6 5 4 3 4 5 5 5 5 6 8 9 10 11 11 11 10
10 10 11 11 12 12 11 10 10 10 9 9 9 9 10 10 10 10 11 10 9 8 8 7 6 7 7 7 6 5 4 3 4 5 5 5 5 6 7 8 9 10 11 11 10
10 10 11 12 12 12 11 10 10 10 9 9 9 9 9 9 9 10 10 10 8 7 7 6 7 7 7 6 6 5 4 4 4 4 5 4 4 5 6 8 9 10 11 11 11
10 10 11 12 12 12 11 11 11 10 8 8 9 9 9 9 9 10 10 10 8 7 7 6 7 7 6 6 5 5 5 5 4 3 3 3 3 4 5 7 8 10 12 12 12
10 10 11 12 12 12 11 11 11 8 6 7 9 9 9 9 9 9 10 10 9 8 7 7 7 7 6 6 6 6 6 5 4 3 3 3 2 3 4 6 7 9 11 13 13
10 10 11 12 12 12 11 11 10 7 5 6 8 8 8 8 8 9 9 9 8 7 7 7 7 7 7 7 7 7 5 4 3 2 2 2 2 3 4 5 7 9 11 13 14
9 10 10 12 12 12 11 10 8 6 6 7 7 7 7 7 8 8 8 8 7 6 5 5 6 7 8 7 7 6 4 2 1 1 1 2 2 3 4 6 8 9 11 12 13
10 9 10 11 12 12 11 9 7 7 8 8 8 7 7 7 7 7 7 6 6 6 5 4 4 6 8 7 6 5 4 2 1 0 1 2 2 3 5 7 8 9 11 12 13
10 9 10 11 12 12 11 8 7 8 9 8 8 7 6 6 6 6 6 6 7 7 6 4 4 6 8 8 7 6 4 4 2 1 1 1 2 3 5 6 7 8 10 11 12
10 9 10 11 12 12 10 8 8 9 9 9 8 7 7 6 6 6 6 6 7 7 7 6 5 6 7 8 7 6 5 4 3 1 0 0 1 3 4 5 6 7 9 10 11
9 9 10 11 12 11 9 9 10 10 10 9 9 8 7 7 6 6 6 6 7 7 7 7 6 5 6 7 7 6 6 5 3 2 1 1 1 3 4 5 6 7 8 10 11
9 10 10 11 10 10 9 10 10 10 10 10 9 9 8 7 6 6 6 6 7 7 7 7 6 4 5 6 7 6 6 6 4 3 2 1 2 4 5 6 7 7 8 10 11
10 10 10 10 10 9 9 10 10 10 10 10 9 9 8 7 7 6 6 6 6 7 7 7 6 4 4 5 6 6 6 6 6 4 2 1 2 4 6 7 7 8 8 9 10
10 10 10 10 9 9 9 9 10 10 10 10 10 9 9 8 7 6 6 6 6 6 6 6 6 5 4 5 6 6 6 7 6 4 3 2 2 4 6 7 7 8 8 9 9
11 11 10 10 10 10 10 9 9 9 9 9 9 9 9 8 8 7 6 6 6 6 6 6 6 5 5 6 6 6 6 6 5 4 4 3 3 4 6 7 7 8 8 8 8
11 11 11 10 10 10 10 9 9 9 9 9 9 9 9 9 8 8 7 7 6 6 6 6 5 5 5 6 6 6 6 5 5 5 4 4 4 5 6 7 7 7 8 8 8
11 11 11 11 10 10 10 10 10 9 9 8 8 8 9 9 9 8 8 7 7 6 6 6 5 5 4 5 5 5 5 5 5 5 5 4 4 5 6 7 7 7 8 8 8